Overview Statistics Trail Chart Weather Telemetry Raw packets
 

This is the latest recevied weather packets stored in our database for station/object KQ4KX. If no packets are shown the sender has not sent any weather packets the latest 10 day(s).

<< 88 89 90 91 92 93 94 >>
Time Temp. Humidity Pressure Rain* Wind** Luminosity Snow
1787934640 32.22° C 71% 1018.6 hPa 0 mm - - -
1787934340 31.67° C 72% 1018.6 hPa 0 mm - - -
1787934010 31.67° C 69% 1018.7 hPa 0 mm - - -
1787933680 31.67° C 70% 1018.7 hPa 0 mm - - -
1787933380 32.22° C 72% 1018.8 hPa 0 mm - - -
1787933080 31.67° C 73% 1018.8 hPa 0 mm - - -
1787932749 31.67° C 71% 1018.8 hPa 0 mm - - -
1787932420 31.67° C 75% 1018.8 hPa 0 mm - - -
1787931790 31.11° C 74% 1018.9 hPa 0 mm - - -
1787931490 31.11° C 73% 1018.9 hPa 0 mm - - -
1787930860 31.11° C 75% 1018.9 hPa 0 mm - - -
1787930529 31.11° C 76% 1018.9 hPa 0 mm - - -
1787930229 31.11° C 76% 1018.9 hPa 0 mm - - -
1787929929 31.11° C 77% 1019 hPa 0 mm - - -
1787929751 30.56° C 78% 1018.8 hPa 0 mm - - -
1787929599 30.56° C 78% 1018.8 hPa 0 mm - - -
1787929299 30.56° C 79% 1018.8 hPa 0 mm - - -
1787928970 30° C 78% 1018.8 hPa 0 mm - - -
1787928760 30° C 80% 1018.7 hPa 0 mm - - -
1787928669 30° C 80% 1018.7 hPa 0 mm - - -
1787928489 30° C 79% 1018.8 hPa 0 mm - - -
1787928339 30° C 79% 1018.8 hPa 0 mm - - -
1787927709 29.44° C 79% 1018.8 hPa 0 mm - - -
1787927410 29.44° C 84% 1018.8 hPa 0 mm - - -
1787927110 28.89° C 85% 1018.7 hPa 0 mm - - -

* Rain latest hour (hover to see other rain measurements)
** Current wind speed in m/s (hover to see current wind gust speed)